N7WGJ Weather Reports


time (UTC)temp
C
wind
direction
speed
KPH
gust
KPH
rain 1hr
cm
rain 24hr
cm
rain mn
cm
humidity
%
barometer
mb
20260507110146 10 192 0.0 0.0 0.00 0.00 0.00 86 1021.6
20260507105123 10 192 0.0 0.0 0.00 0.00 0.00 86 1021.7
20260507104125 11 181 0.0 0.0 0.00 0.00 0.00 85 1021.6
20260507103127 11 182 0.0 0.0 0.00 0.00 0.00 85 1021.7
20260507102131 11 181 0.0 0.0 0.00 0.00 0.00 85 1021.6
20260507101129 11 187 0.0 0.0 0.00 0.00 0.00 84 1021.6
20260507100149 11 186 0.0 0.0 0.00 0.00 0.00 84 1021.6
20260507095124 11 188 0.0 0.0 0.00 0.00 0.00 84 1021.5
20260507094124 11 186 0.0 0.0 0.00 0.00 0.00 84 1021.5
20260507093143 11 188 0.0 0.0 0.00 0.00 0.00 84 1021.5
20260507092125 11 187 0.0 0.0 0.00 0.00 0.00 84 1021.5
20260507091129 11 188 0.0 0.0 0.00 0.00 0.00 84 1021.5
20260507090152 11 204 3.2 9.7 0.00 0.00 0.00 84 1021.5
20260507085139 11 200 0.0 0.0 0.00 0.00 0.00 85 1021.5
20260507084143 11 185 0.0 0.0 0.00 0.00 0.00 86 1021.6
20260507083126 11 185 0.0 0.0 0.00 0.00 0.00 87 1021.6
20260507082126 11 186 0.0 0.0 0.00 0.00 0.00 87 1021.6
20260507081129 11 184 0.0 0.0 0.00 0.00 0.00 87 1021.6
20260507080147 11 196 0.0 0.0 0.00 0.00 0.00 87 1021.6
20260507075141 11 193 0.0 0.0 0.00 0.00 0.00 88 1021.6
20260507074139 11 192 0.0 0.0 0.00 0.00 0.00 89 1021.5
20260507073140 11 192 0.0 0.0 0.00 0.00 0.00 89 1021.5
20260507072127 11 192 0.0 0.0 0.00 0.00 0.00 90 1021.6
20260507071131 11 194 0.0 0.0 0.00 0.00 0.00 90 1021.5
20260507070151 10 194 0.0 0.0 0.00 0.00 0.00 90 1021.5
20260507065137 10 204 0.0 0.0 0.00 0.00 0.00 90 1021.5
20260507064135 10 194 0.0 8.0 0.00 0.00 0.00 90 1021.5
20260507063133 10 204 0.0 11.3 0.00 0.00 0.00 90 1021.5
20260507062138 10 230 0.0 0.0 0.00 0.00 0.00 91 1021.4
20260507061139 10 200 0.0 0.0 0.00 0.00 0.00 91 1021.5
20260507060155 11 200 0.0 0.0 0.00 0.00 0.00 91 1021.5
20260507055142 11 200 0.0 0.0 0.00 0.00 0.00 91 1021.5
20260507054125 11 243 0.0 0.0 0.00 0.00 0.00 91 1021.6
20260507053128 11 245 0.0 8.0 0.00 0.00 0.00 91 1021.6
20260507052129 11 216 0.0 0.0 0.00 0.00 0.00 90 1021.6
20260507051130 11 243 0.0 0.0 0.00 0.00 0.00 90 1021.6
20260507050139 11 227 0.0 6.4 0.00 0.00 0.00 89 1021.6
20260507045132 11 244 0.0 4.8 0.00 0.00 0.00 88 1021.6
20260507044136 11 256 0.0 12.9 0.00 0.00 0.00 88 1021.5
20260507043130 12 230 0.0 0.0 0.00 0.00 0.00 87 1021.5
20260507042134 12 238 0.0 0.0 0.00 0.00 0.00 86 1021.4
20260507041136 12 216 0.0 0.0 0.00 0.00 0.00 85 1021.5
20260507040139 12 221 0.0 0.0 0.00 0.00 0.00 85 1021.4
20260507035128 12 227 0.0 0.0 0.00 0.00 0.00 85 1021.3
20260507034129 12 202 0.0 0.0 0.00 0.00 0.00 84 1021.2
20260507033131 12 208 0.0 0.0 0.00 0.00 0.00 84 1021.2
20260507032136 12 195 0.0 0.0 0.00 0.00 0.00 84 1021.1
20260507031140 12 205 0.0 0.0 0.00 0.00 0.00 84 1021.0
20260507030137 12 207 0.0 0.0 0.00 0.00 0.00 84 1020.9
20260507025130 12 252 0.0 0.0 0.00 0.00 0.00 84 1020.8
20260507024133 12 216 0.0 0.0 0.00 0.00 0.00 83 1020.8
20260507023135 12 235 0.0 0.0 0.00 0.00 0.00 83 1020.7
20260507022132 12 247 0.0 0.0 0.00 0.00 0.00 83 1020.7
20260507021135 13 201 0.0 0.0 0.00 0.00 0.00 82 1020.7
20260507020136 13 228 0.0 0.0 0.00 0.00 0.00 82 1020.7
20260507015131 13 235 0.0 1.6 0.00 0.00 0.00 82 1020.7
20260507014133 13 212 0.0 12.9 0.00 0.00 0.00 82 1020.7
20260507013134 13 242 0.0 0.0 0.00 0.00 0.00 81 1020.8
20260507012139 13 226 0.0 0.0 0.00 0.00 0.00 81 1020.8
20260507011144 13 205 0.0 0.0 0.00 0.00 0.00 81 1020.8
20260507010149 13 195 0.0 0.0 0.00 0.00 0.00 81 1020.8
20260507005141 13 240 0.0 6.4 0.00 0.00 0.00 81 1020.9
20260507004127 13 212 4.8 16.1 0.00 0.00 0.00 81 1021.0
20260507003128 13 199 1.6 11.3 0.00 0.00 0.00 81 1020.9
20260507002133 13 206 3.2 12.9 0.00 0.00 0.00 81 1020.9
20260507001131 13 219 8.0 16.1 0.00 0.00 0.00 81 1020.9
20260507000151 13 201 0.0 11.3 0.00 0.00 0.00 80 1020.9
20260506235129 14 213 6.4 12.9 0.00 0.00 0.00 79 1021.0
20260506234134 14 211 0.0 4.8 0.00 0.00 0.00 79 1020.9
20260506233137 14 244 1.6 16.1 0.00 0.00 0.00 79 1021.0
20260506232136 14 231 1.6 16.1 0.00 0.00 0.00 78 1021.0
20260506231140 15 257 0.0 4.8 0.00 0.00 0.00 77 1021.0
20260506230139 15 211 4.8 12.9 0.00 0.00 0.00 77 1021.0
20260506225133 15 232 6.4 11.3 0.00 0.00 0.00 78 1021.1
20260506224132 14 286 1.6 9.7 0.00 0.00 0.00 78 1021.1
20260506223133 14 228 0.0 11.3 0.00 0.00 0.00 79 1021.1
20260506222137 14 254 1.6 9.7 0.00 0.00 0.00 79 1021.3
20260506221141 13 184 0.0 16.1 0.00 0.00 0.00 79 1021.4
20260506220139 13 240 0.0 11.3 0.00 0.00 0.00 79 1021.3
20260506215134 13 245 1.6 11.3 0.00 0.00 0.00 81 1021.4
20260506214136 13 235 3.2 12.9 0.00 0.00 0.00 80 1021.5
20260506213139 13 227 6.4 12.9 0.00 0.00 0.00 80 1021.4
20260506212141 13 250 4.8 12.9 0.00 0.00 0.00 80 1021.5
20260506211142 14 242 3.2 14.5 0.00 0.00 0.00 79 1021.5
20260506210140 14 197 8.0 11.3 0.00 0.00 0.00 80 1021.4
20260506205135 13 240 0.0 11.3 0.00 0.00 0.00 80 1021.3
20260506204137 13 269 0.0 12.9 0.00 0.00 0.00 81 1021.3
20260506203135 13 251 1.6 14.5 0.00 0.00 0.00 79 1021.2
20260506202135 14 221 0.0 3.2 0.00 0.00 0.00 81 1021.2
20260506201137 13 279 3.2 12.9 0.00 0.00 0.00 81 1021.2
20260506200138 13 241 0.0 0.0 0.00 0.00 0.00 80 1021.1
20260506195125 13 286 0.0 14.5 0.00 0.00 0.00 80 1021.2
20260506194125 13 271 1.6 14.5 0.00 0.00 0.00 81 1021.1
20260506193125 13 227 3.2 11.3 0.00 0.00 0.00 81 1021.1
20260506192142 13 271 0.0 11.3 0.00 0.00 0.00 81 1020.9
20260506191140 13 183 1.6 19.3 0.00 0.00 0.00 81 1020.9
20260506190140 13 175 3.2 14.5 0.00 0.00 0.00 83 1020.9
20260506185134 13 169 8.0 16.1 0.00 0.00 0.00 83 1020.9
20260506184137 12 216 1.6 11.3 0.00 0.00 0.00 85 1021.0
20260506183137 12 205 0.0 8.0 0.00 0.00 0.00 85 1021.1
20260506182137 12 213 0.0 12.9 0.00 0.00 0.00 86 1021.0
20260506181140 12 196 0.0 0.0 0.00 0.00 0.00 87 1020.7
20260506180139 12 230 0.0 6.4 0.00 0.00 0.00 87 1020.6
20260506175132 12 230 0.0 0.0 0.00 0.00 0.00 88 1020.8
20260506174128 12 245 0.0 0.0 0.00 0.00 0.00 89 1020.8
20260506173130 12 244 0.0 8.0 0.00 0.00 0.00 89 1020.6
20260506172131 12 237 0.0 4.8 0.00 0.00 0.00 89 1020.9
20260506171133 12 217 0.0 16.1 0.00 0.00 0.00 89 1020.8
20260506170147 12 242 3.2 14.5 0.00 0.00 0.00 89 1020.8
20260506165140 12 210 1.6 16.1 0.00 0.00 0.00 88 1020.9
20260506164139 12 215 1.6 12.9 0.00 0.00 0.00 89 1020.6
20260506163139 12 175 6.4 9.7 0.00 0.00 0.00 90 1020.5
20260506162137 11 182 0.0 8.0 0.00 0.00 0.00 92 1020.3
20260506161142 11 197 0.0 1.6 0.00 0.00 0.00 93 1020.2
20260506160144 11 212 0.0 0.0 0.00 0.00 0.00 94 1020.3
20260506155135 11 211 0.0 0.0 0.00 0.00 0.00 95 1020.3
20260506154141 11 196 0.0 0.0 0.00 0.00 0.00 95 1020.5
20260506153140 11 193 0.0 0.0 0.00 0.00 0.00 96 1020.4
20260506152140 11 192 0.0 0.0 0.00 0.00 0.00 96 1020.2
20260506151144 11 191 0.0 0.0 0.00 0.00 0.00 96 1020.2
20260506150146 11 192 0.0 0.0 0.00 0.00 0.00 95 1020.3
20260506145132 11 192 0.0 0.0 0.00 0.00 0.00 96 1020.4
20260506144134 11 180 0.0 0.0 0.00 0.00 0.00 96 1020.3
20260506143135 11 180 0.0 0.0 0.00 0.00 0.00 95 1020.0
20260506142135 11 180 0.0 0.0 0.00 0.00 0.00 95 1019.8
20260506141136 11 192 0.0 0.0 0.00 0.00 0.00 95 1020.1
20260506140138 11 187 0.0 0.0 0.00 0.00 0.00 95 1020.0
20260506135129 11 183 0.0 0.0 0.00 0.00 0.00 95 1020.0
20260506134130 11 197 0.0 0.0 0.00 0.00 0.00 95 1019.8
20260506133133 11 227 0.0 0.0 0.00 0.00 0.00 94 1019.8
20260506132135 11 213 0.0 0.0 0.00 0.00 0.00 94 1019.8
20260506131135 11 169 0.0 8.0 0.00 0.00 0.00 94 1019.6
20260506130155 11 212 0.0 0.0 0.00 0.00 0.00 94 1019.5
20260506125128 11 213 0.0 0.0 0.00 0.00 0.00 94 1019.4
20260506124129 11 212 0.0 0.0 0.00 0.00 0.00 93 1019.4
20260506123128 11 212 0.0 0.0 0.00 0.00 0.00 93 1019.3
20260506122133 11 212 0.0 0.0 0.00 0.00 0.00 93 1019.2
20260506121137 11 213 0.0 0.0 0.00 0.00 0.00 93 1019.3
20260506120133 11 212 0.0 0.0 0.00 0.00 0.00 93 1019.2
20260506115129 11 212 0.0 0.0 0.00 0.00 0.00 93 1019.0
20260506114143 11 211 0.0 0.0 0.00 0.00 0.00 93 1018.8
20260506113126 11 212 0.0 0.0 0.00 0.00 0.00 93 1019.0
20260506112127 11 211 0.0 0.0 0.00 0.00 0.00 93 1019.0
20260506111125 11 212 0.0 0.0 0.00 0.00 0.00 93 1019.0